Location: Ammerl�gen
(47.2167°N, 9.6000°E)
Time: 09:49:58
(UTC+00:00)

Cosmos 2026 Rocket - Pass Details

Date: 21 April 2021
Orbit: 938 x 1002 km, 82.9° (Epoch: 06 May)

Event Time Altitude Azimuth Distance (km) Brightness Sun altitude
Rises 19:06:54 0° 351° (N) 3,613 7.6 -8.3°
Reaches altitude 10° 19:09:23 10° 351° (N) 2,667 6.9 -8.6°
Maximum altitude 19:15:29 89° 70° (ENE) 954 4.0 -9.5°
Drops below altitude 10° 19:21:37 10° 173° (S) 2,678 6.0 -10.4°
Sets 19:24:07 0° 174° (S) 3,628 6.6 -10.8°
